Weather History for Bardufoss, Norway

Change the Weather History Date:

Saturday, February 16, 2013

  Actual Average Record
Temperature  
Mean Temperature 6 °F -  
Max Temperature 12 °F 26 °F 44 °F (2003)
Min Temperature 1 °F 12 °F -18 °F (2007)
Degree Days  
Heating Degree Days 58    
Moisture  
Dew Point 5 °F    
Average Humidity 87    
Maximum Humidity 92    
Minimum Humidity 79    
Precipitation  
Precipitation 0.00 in - - ()
Sea Level Pressure  
Sea Level Pressure 30.01 in    
Wind  
Wind Speed 1 mph ()    
Max Wind Speed 2 mph    
Max Gust Speed -    
Visibility 6.2 miles    
Events      
Averages and records for this station are not official NWS values.
T = Trace of Precipitation, MM = Missing Value Source: Averaged Metar Reports

Daily Weather History Graph

Daily Weather History Graph

Search for Another Location

Airport:

Trip Planner

Search our weather history database for the weather conditions in past years. The results will help you decide how hot, cold, wet, or windy it might be!

Date:

Astronomy

Feb. 16, 2013 Rise Set
Actual Time 8:06 AM CET 3:54 PM CET
Civil Twilight 7:02 AM CET 4:59 PM CET
Nautical Twilight 5:53 AM CET 6:07 PM CET
Astronomical Twilight 4:46 AM CET 7:15 PM CET
Moon 7:20 AM CET (2/16) 1:16 AM CET (2/16)
Length of Visible Light 9h 56m
Length of Day
7h 47m
Waxing Crescent, 37% of the Moon is Illuminated
Feb 16
Waxing Crescent
Feb 17
First Quarter
Feb 25
Full
Mar 4
Last Quarter
Mar 11
New

Hourly Weather History & Observations

Time (CET) Temp. Dew Point Humidity Pressure Visibility Wind Dir Wind Speed Gust Speed Precip Events Conditions
12:50 AM 8.6 °F 5.0 °F 85% 30.04 in 6.2 mi Variable 1.2 mph - N/A   Partly Cloudy
1:00 AM 8 °F 5 °F 83% 30.07 in 47 mi West 2.2 mph - -   Partly Cloudy
1:50 AM 8.6 °F 6.8 °F 92% 30.04 in 6.2 mi Variable 2.3 mph - N/A   Scattered Clouds
2:50 AM 6.8 °F 5.0 °F 92% 30.01 in - Variable 1.2 mph - N/A   Clear
3:50 AM 8.6 °F 5.0 °F 85% 30.01 in - West 2.3 mph - N/A   Clear
4:50 AM 3.2 °F 1.4 °F 92% 30.01 in - Variable 2.3 mph - N/A   Clear
5:20 AM 3.2 °F 1.4 °F 92% 30.01 in - Variable 1.2 mph - N/A   Clear
5:50 AM 3.2 °F 1.4 °F 92% 30.01 in - Variable 1.2 mph - N/A   Clear
6:20 AM 3.2 °F -0.4 °F 85% 30.01 in - Variable 1.2 mph - N/A   Clear
6:50 AM 5.0 °F 3.2 °F 92% 30.01 in - Variable 2.3 mph - N/A   Clear
7:00 AM 4 °F 2 °F 85% 30.05 in 47 mi West 2.2 mph - -   Partly Cloudy
7:20 AM 5.0 °F 3.2 °F 92% 30.01 in - Variable 1.2 mph - N/A   Clear
7:50 AM 1.4 °F -2.2 °F 85% 30.01 in - Variable 2.3 mph - N/A   Clear
8:20 AM 1.4 °F -0.4 °F 92% 30.01 in 6.2 mi Variable 2.3 mph - N/A   Scattered Clouds
8:50 AM 1.4 °F -2.2 °F 85% 30.01 in 6.2 mi Variable 1.2 mph - N/A   Scattered Clouds
9:20 AM 3.2 °F -0.4 °F 85% 30.01 in 6.2 mi Variable 1.2 mph - N/A   Mostly Cloudy
9:50 AM 6.8 °F 3.2 °F 85% 30.01 in 6.2 mi Calm Calm - N/A   Mostly Cloudy
10:20 AM 6.8 °F 3.2 °F 85% 30.01 in 6.2 mi Calm Calm - N/A   Mostly Cloudy
10:50 AM 8.6 °F 5.0 °F 85% 30.01 in 6.2 mi Variable 2.3 mph - N/A   Mostly Cloudy
11:20 AM 10.4 °F 6.8 °F 85% 30.01 in 6.2 mi Variable 1.2 mph - N/A   Mostly Cloudy
11:50 AM 10.4 °F 6.8 °F 85% 30.01 in 6.2 mi Variable 1.2 mph - N/A   Mostly Cloudy
12:20 PM 10.4 °F 6.8 °F 85% 30.01 in 6.2 mi Calm Calm - N/A   Mostly Cloudy
12:50 PM 10.4 °F 6.8 °F 85% 30.01 in 6.2 mi East 2.3 mph - N/A   Mostly Cloudy
1:00 PM 11 °F 8 °F 79% 30.04 in 40 mi East 2.2 mph - -   Partly Cloudy
1:20 PM 10.4 °F 6.8 °F 85% 30.01 in 6.2 mi ESE 1.2 mph - N/A   Mostly Cloudy
1:50 PM 12.2 °F 8.6 °F 85% 30.01 in 6.2 mi SE 1.2 mph - N/A   Mostly Cloudy
2:20 PM 12.2 °F 8.6 °F 85% 30.01 in 6.2 mi Variable 1.2 mph - N/A   Mostly Cloudy
2:50 PM 12.2 °F 8.6 °F 85% 30.01 in 6.2 mi Variable 1.2 mph - N/A   Mostly Cloudy
3:20 PM 12.2 °F 8.6 °F 85% 29.98 in 6.2 mi SE 1.2 mph - N/A   Mostly Cloudy
3:50 PM 12.2 °F 8.6 °F 85% 29.98 in 6.2 mi Calm Calm - N/A   Mostly Cloudy
4:20 PM 12.2 °F 8.6 °F 85% 29.98 in 6.2 mi West 1.2 mph - N/A   Mostly Cloudy
4:50 PM 12.2 °F 8.6 °F 85% 29.98 in 6.2 mi South 2.3 mph - N/A   Mostly Cloudy
5:20 PM 10.4 °F 6.8 °F 85% 29.98 in 6.2 mi Variable 1.2 mph - N/A   Mostly Cloudy
5:50 PM 10.4 °F 8.6 °F 92% 29.98 in 6.2 mi Variable 1.2 mph - N/A   Mostly Cloudy
6:20 PM 8.6 °F 5.0 °F 85% 29.98 in 6.2 mi West 2.3 mph - N/A   Scattered Clouds
6:50 PM 6.8 °F 3.2 °F 85% 29.98 in 6.2 mi Variable 1.2 mph - N/A   Scattered Clouds
7:00 PM 6 °F 4 °F 86% 30.02 in 44 mi Calm Calm - -   Partly Cloudy
7:50 PM 8.6 °F 6.8 °F 92% 29.98 in 6.2 mi Variable 1.2 mph - N/A   Mostly Cloudy
8:50 PM 8.6 °F 5.0 °F 85% 29.98 in 6.2 mi Variable 1.2 mph - N/A   Mostly Cloudy
9:50 PM 6.8 °F 3.2 °F 85% 29.98 in 6.2 mi Calm Calm - N/A   Scattered Clouds
10:50 PM 6.8 °F 3.2 °F 85% 29.98 in 6.2 mi Calm Calm - N/A   Scattered Clouds
11:50 PM 6.8 °F 3.2 °F 85% 29.98 in 6.2 mi Calm Calm - N/A   Scattered Clouds